Voltar ao catálogo

QIANFAN-168

AtivoComunicaçõesPO
NORAD 69385·PAYLOAD·🇨🇳 China

Lançado Jun 4, 2026 de Taiyuan Satellite Launch Center

Loading…

Próximas Passagens (próximas 24 horas)

TLE

AtualizadoSource: Space-Track

Época: Sep 14, 2026, 12:58 UTC

1 69385U 26124D   26257.54047057  .00000126  00000-0  17622-3 0  9990
2 69385  89.0061 352.6181 0001620 104.4009 255.7323 13.51019287 14100

Acompanhe QIANFAN-168 em tempo real com AllMySat

Download on the App Store